TimePST,TemperatureF,Dew PointF,Humidity,Sea Level PressureIn,VisibilityMPH,Wind Direction,Wind SpeedMPH,Gust SpeedMPH,PrecipitationIn,Events,Conditions,WindDirDegrees,DateUTC
12:53 AM,39.9,36.0,86,30.31,10.0,Calm,Calm,-,N/A,,Scattered Clouds,0,2012-11-22 08:53:00
1:53 AM,39.0,35.1,86,30.32,10.0,Calm,Calm,-,N/A,,Scattered Clouds,0,2012-11-22 09:53:00
2:53 AM,37.9,34.0,86,30.34,10.0,Calm,Calm,-,N/A,,Scattered Clouds,0,2012-11-22 10:53:00
3:53 AM,37.4,35.6,93,30.35,10.0,Calm,Calm,-,N/A,,Scattered Clouds,0,2012-11-22 11:53:00
4:53 AM,36.0,34.0,93,30.36,10.0,Calm,Calm,-,N/A,,Scattered Clouds,0,2012-11-22 12:53:00
5:53 AM,35.1,34.0,96,30.37,10.0,SE,3.5,-,N/A,,Partly Cloudy,140,2012-11-22 13:53:00
6:53 AM,35.1,33.1,92,30.37,10.0,SSE,4.6,-,N/A,,Mostly Cloudy,150,2012-11-22 14:53:00
7:53 AM,37.0,35.1,93,30.36,10.0,Calm,Calm,-,N/A,,Scattered Clouds,0,2012-11-22 15:53:00
8:53 AM,39.0,36.0,89,30.37,10.0,Calm,Calm,-,N/A,,Mostly Cloudy,0,2012-11-22 16:53:00
9:53 AM,41.0,37.0,86,30.37,10.0,Calm,Calm,-,N/A,,Overcast,0,2012-11-22 17:53:00
10:53 AM,43.0,37.9,82,30.36,10.0,Calm,Calm,-,N/A,,Overcast,0,2012-11-22 18:53:00
11:53 AM,44.1,37.0,76,30.34,10.0,Calm,Calm,-,N/A,,Overcast,0,2012-11-22 19:53:00
12:53 PM,45.0,37.0,74,30.31,10.0,Calm,Calm,-,N/A,,Overcast,0,2012-11-22 20:53:00
1:53 PM,46.0,37.9,73,30.31,10.0,Calm,Calm,-,N/A,,Mostly Cloudy,0,2012-11-22 21:53:00
2:53 PM,46.9,37.0,68,30.30,10.0,Calm,Calm,-,N/A,,Mostly Cloudy,0,2012-11-22 22:53:00
3:53 PM,46.9,37.9,71,30.29,10.0,Calm,Calm,-,N/A,,Overcast,0,2012-11-22 23:53:00
4:53 PM,46.0,39.0,76,30.28,10.0,Calm,Calm,-,N/A,,Overcast,0,2012-11-23 00:53:00
5:53 PM,45.0,39.9,82,30.25,10.0,ESE,3.5,-,N/A,,Overcast,120,2012-11-23 01:53:00
6:53 PM,46.0,37.9,73,30.25,10.0,Calm,Calm,-,N/A,,Scattered Clouds,0,2012-11-23 02:53:00
7:53 PM,46.0,37.9,73,30.22,10.0,Calm,Calm,-,N/A,,Mostly Cloudy,0,2012-11-23 03:53:00
8:53 PM,46.0,36.0,68,30.21,10.0,Calm,Calm,-,N/A,,Overcast,0,2012-11-23 04:53:00
9:53 PM,45.0,37.9,76,30.23,10.0,Calm,Calm,-,N/A,,Mostly Cloudy,0,2012-11-23 05:53:00
10:53 PM,46.0,39.0,76,30.22,10.0,ESE,4.6,-,0.01,Rain,Light Rain,110,2012-11-23 06:53:00
11:53 PM,46.0,39.9,79,30.23,10.0,ESE,4.6,-,0.01,Rain,Light Rain,120,2012-11-23 07:53:00